SCP
0 0 0 0 0 0 0 0 0 0 0 0 0 0 0 0 0 0 0 0 0 0 0 0 0 0 0 0 -0 -0 0 0 0 -0 -0 0 0 0
0 0 0 0 0 0 0 0 0 0 0 0 0 0 0 0 0 0 0 0 0 -0 0 0 0 0 -0 -0 0 0 0 -0 -0 -0 -0 0 0 0
0 0 0 0 0 0 0 0 0 0 0 0 0 0 0 0 0 0 0 0 0 0 0 0 0 -0 -0 0 -0 -0 -0 -0 -0 -0 0 0 0 0
0 0 0 0 0 0 0 -0 0 0 0 0 0 0 0 0 0 0 0 0 0 0 0 0 0 0 -0 0 0 -0 -0 -0 -0 -0 -0 0 0 0
0 0 0 0 0 -0 0 0 0 0 0 0 0 0 0 0 0 0 0 0 0 0 0 -0 -0 -0 -0 -0 -0 -0 -0 -0 -0 -0 0 0 0 0
0 -0 0 0 0 0 0 0 0 0 0 0 0 0 0 0 0 0 0 0 0 0 -0 -0 -0 -0 -0 -0 -0 -0 -0 -0 0 0 0 0 0 0
0 0 0 0 0 0 0 0 0 0 0 0 0 0 0 0 0 0 0 0 -0 0 0 0 0 -0 -0 -0 -0 -0 -0 0 0 0 0 0 0 0
0 0 0 -0 0 -0 0 0 0 0 0 0 -0 -0 0 0 0 -0 0 -0 -0 -0 -0 0 0 -0 -0 0 -0 0 0 0 0 0 0 0 0 0
0 0 0 -0 -0 0 0 -0 -0 0 0 0 0 0 0 -0 -0 -0 -0 -0 -0 -0 0 -0 -0 -0 0 0 0 0 0 0 0 0 0 0 0 0
0 0 -0 0 0 0 -0 -0 0 -0 0 0 0 0 0 -0 -0 -0 -0 -0 -0 -0 -0 -0 0 0 0 0 0 0 0 0 0 0 0 0 0 -0
-0 0 0 -0 0 -0 0 0 0 0 0 0 0 -0 0 -0 -0 -0 -0 0 -0 -0 0 0 0 0 0 0 0 0 0 0 0 0 0 0 0 0
0 0 -0 -0 0 0 -0 0 0 0 -0 0 0 0 -0 -0 -0 0 0 0 -0 -0 0 0 0 0 0 0 0 0 0 0 0 0 0 0 0 0
-0 0 0 0 -0 -0 -0 -0 -0 0 0 -0 -0 -0 -0 -0 0 0 0 -0 0 0 0 0 0 0 0 0 0 0 0 0 0 0 0 0 0 0
-0 0 -0 0 0 0 0 -0 0 0 -0 -0 -0 0 0 0 0 0 -0 -0 0 0 0 0 0 0 0 0 0 0 0 0 0 0 0 0 0 0
0 0 0 0 0 0 -0 -0 -0 -0 0 0 0 0 0 0 -0 -0 0 0 0 0 0 0 0 0 0 0 0 0 0 0 0 0 0 0 0 0
0 0 0 0 0 -0 -0 -0 0 0 0 0 0 0 -0 -0 0 0 0 0 0 0 0 0 0 0 0 0 0 0 0 0 0 0 0 0 0 0
0 0 0 0 -0 -0 -0 0 0 0 0 0 -0 -0 -0 -0 0 0 0 0 0 0 0 0 0 0 0 0 0 0 0 0 0 0 0 0 0 0
0 0 0 0 0 0 0 0 0 0 0 0 -0 -0 -0 0 0 0 0 0 0 0 0 0 0 0 0 0 0 0 0 0 0 0 0 0 0 0
0 -0 -0 0 0 0 0 0 0 0 0 0 -0 -0 0 0 0 0 0 0 0 0 0 0 0 0 0 0 0 0 0 0 0 0 0 0 0 0
0 0 0 0 0 0 0 0 -0 -0 -0 -0 -0 -0 0 0 0 0 0 0 0 0 0 0 0 0 0 0 0 0 0 0 0 0 0 0 0 0
-0 0 -0 -0 -0 -0 -0 -0 -0 -0 0 0 0 0 0 0 0 0 0 0 0 0 0 0 0 0 0 0 0 0 0 0 0 0 0 0 0 0
-0 -0 0 -0 -0 -0 -0 -0 0 0 0 0 0 0 0 0 0 0 0 0 0 0 0 0 0 0 0 0 0 0 0 0 0 0 0 0 0 0
0 -0 -0 0 -0 -0 0 0 0 0 0 0 0 0 0 0 0 0 0 0 0 0 0 0 0 0 0 0 0 0 0 0 -0 0 0 0 0 0
Wind_Speed_500mb
6 8 11 10 12 17 27 40 37 27 28 28 38 26 40 62 89 84 89 92 94 88 62 47 44 43 38 30 28 21 21 17 13 11 7 5 10 15
4 3 4 3 6 10 32 36 30 46 40 48 59 67 84 92 93 100 98 93 82 57 47 47 40 30 28 24 23 21 17 15 11 7 6 11 17 22
13 7 8 6 21 18 23 21 33 32 61 65 74 79 95 105 96 92 82 76 59 54 50 45 40 35 30 29 22 18 13 10 7 8 12 17 23 27
9 11 10 12 14 10 20 21 22 28 61 85 81 91 84 85 82 72 70 65 58 55 48 43 38 37 31 25 19 15 11 7 10 14 16 15 15 18
15 10 11 16 13 25 25 29 34 68 91 96 72 79 80 72 73 68 62 55 51 52 42 41 38 33 25 19 14 10 8 11 7 6 10 14 15 18
14 17 20 22 22 31 37 38 70 84 84 86 78 67 67 62 62 66 58 52 52 44 41 36 31 25 20 16 13 11 7 3 4 8 10 13 17 20
27 21 27 31 35 36 44 68 84 85 85 85 73 72 71 69 66 56 58 53 42 37 38 33 27 23 20 19 16 12 5 2 5 8 12 14 15 16
29 33 36 38 36 33 48 69 85 89 83 83 78 74 65 64 59 60 58 53 41 28 34 31 26 30 28 23 17 8 1 2 7 10 10 11 12 13
33 39 37 34 32 33 47 60 67 69 65 77 70 70 70 66 59 60 55 42 42 43 39 39 28 25 25 20 11 5 1 5 7 7 8 8 12 15
36 35 36 35 34 44 48 52 60 49 54 67 68 77 62 41 34 43 46 37 35 39 31 28 20 23 22 15 9 6 2 4 4 5 5 7 13 20
32 31 35 35 42 38 44 49 51 51 53 50 60 51 43 40 50 43 38 37 39 31 28 22 24 19 20 19 13 8 6 5 4 5 5 13 18 22
36 32 26 38 37 46 43 49 44 47 61 70 56 45 42 46 44 34 34 32 31 28 30 23 31 24 12 16 14 13 10 10 10 7 9 12 16 16
37 40 49 45 47 47 44 40 55 55 54 58 51 48 43 41 38 35 34 27 30 21 30 32 34 30 10 18 13 15 14 12 12 9 13 15 19 19
40 45 54 53 45 36 34 39 51 55 50 50 46 40 38 40 35 34 36 31 38 33 24 34 22 24 21 16 18 19 18 17 11 11 12 25 28 28
50 45 40 36 36 35 40 45 52 40 40 42 40 39 35 34 42 44 40 37 37 37 24 40 22 24 22 19 19 18 19 17 11 11 12 12 15 15
42 40 38 39 35 39 45 48 34 35 36 37 39 37 37 45 42 35 37 39 36 37 36 35 38 30 18 18 21 21 19 11 18 13 17 11 12 15
43 43 41 35 30 39 44 32 30 34 33 34 35 37 33 31 28 29 26 28 25 30 31 31 32 38 35 28 18 16 14 12 13 18 19 10 9 26
33 32 29 29 31 32 32 31 28 34 29 30 31 30 30 32 32 31 30 30 26 24 26 34 38 38 31 25 25 16 15 12 12 17 25 21 16 11
32 29 30 32 33 35 37 36 34 32 32 31 31 31 32 33 37 31 32 31 30 28 30 37 38 37 36 31 34 29 24 15 21 22 27 23 24 16
34 32 33 34 36 38 38 40 40 40 39 38 36 35 35 33 33 35 36 38 37 40 39 39 36 37 33 35 32 31 21 36 27 30 28 25 25 25
43 38 37 38 40 41 43 44 46 48 47 44 41 39 39 38 41 42 42 45 45 44 42 39 38 52 49 48 36 20 28 34 32 29 29 23 22 18
46 47 44 43 46 47 50 51 51 54 55 54 50 46 48 52 54 54 47 49 55 46 39 42 56 47 52 49 36 25 30 34 30 29 25 21 22 17
50 49 49 50 49 50 50 53 54 57 60 56 56 57 61 62 58 51 53 48 49 48 48 58 43 45 48 44 36 27 33 35 28 28 23 20 22 26
Wind_Direction_500mb
271 219 218 235 266 204 186 174 163 144 130 150 155 193 187 183 175 173 159 149 151 157 156 157 153 157 158 151 151 155 177 170 171 189 215 282 304 305
226 280 230 300 137 173 167 166 164 149 119 147 141 145 161 156 162 150 147 150 156 153 150 155 153 166 167 151 156 166 176 181 194 215 264 294 303 304
254 281 274 178 140 116 156 159 160 156 137 138 135 134 128 129 133 137 142 148 146 151 159 160 162 158 155 167 174 177 184 194 228 274 292 301 301 300
215 237 227 166 154 161 162 154 172 170 151 139 134 134 130 132 141 139 139 143 146 153 157 155 161 159 169 171 174 189 202 239 274 289 301 303 312 321
196 187 182 156 144 149 156 152 153 138 145 141 139 145 147 144 136 139 137 142 145 146 149 157 165 172 170 176 184 208 236 263 279 300 314 321 323 322
138 123 125 155 145 147 148 154 149 147 145 147 149 141 141 144 135 134 136 139 138 145 154 159 163 167 177 185 203 218 197 189 320 337 325 330 335 333
123 112 120 124 132 129 138 148 151 143 144 149 146 147 140 135 138 140 135 138 144 152 154 158 166 172 182 188 182 166 165 352 348 334 339 342 341 353
119 117 119 132 128 132 149 149 155 154 152 157 156 145 143 144 141 138 141 145 137 156 154 146 167 166 184 173 168 169 147 335 346 348 348 353 0 2
131 121 119 128 133 136 145 162 161 158 153 161 160 163 151 146 148 148 146 144 151 151 163 153 180 186 173 177 181 202 232 346 343 352 353 356 356 348
137 127 130 126 127 142 148 156 165 165 172 161 158 154 150 151 155 144 140 161 170 167 170 147 182 178 183 187 204 211 276 311 307 323 331 351 352 351
129 140 132 136 129 145 150 149 157 165 165 163 158 152 163 150 144 160 162 169 153 166 154 173 185 198 192 209 215 217 241 238 282 282 332 356 353 343
123 120 144 147 139 136 142 139 138 156 157 155 154 162 153 158 164 168 167 156 157 171 189 177 183 173 186 260 225 232 241 236 252 283 341 336 332 333
121 120 122 123 132 127 129 136 140 138 145 162 165 166 167 173 175 174 168 183 186 196 214 187 197 194 205 189 234 249 239 246 260 305 308 306 325 330
132 134 131 129 135 140 135 141 141 141 147 154 160 167 175 172 168 188 195 190 197 206 231 188 199 199 202 207 206 222 223 228 215 248 298 317 329 327
146 144 144 142 146 148 149 146 130 144 152 156 165 170 171 169 194 201 200 205 208 212 220 196 185 212 211 221 205 216 210 222 239 241 278 285 286 302
146 147 145 141 138 147 148 147 141 159 162 166 170 172 180 201 205 204 209 213 221 223 228 218 209 204 199 210 207 213 206 230 242 266 294 302 284 286
160 158 156 149 152 157 158 158 167 173 174 174 175 180 186 188 187 197 197 202 213 223 222 217 212 210 207 202 192 204 206 219 242 253 293 278 269 280
163 167 172 174 175 177 180 181 182 182 183 187 191 189 188 188 193 196 197 201 197 200 207 217 217 215 210 209 196 198 225 225 256 289 296 292 296 271
177 186 191 194 194 196 198 200 199 201 196 201 204 200 200 202 207 204 205 206 209 211 208 221 211 207 202 194 216 225 221 232 257 274 280 296 302 302
200 204 206 206 207 208 209 210 212 213 214 211 212 213 210 211 214 215 216 216 217 216 212 214 210 209 219 217 211 217 230 274 275 282 287 300 316 321
208 209 214 214 213 213 214 215 217 218 221 220 220 219 219 217 222 225 223 224 222 218 215 213 213 215 215 219 219 232 265 258 270 282 294 309 321 316
217 218 216 218 219 219 219 219 220 220 221 222 221 221 222 223 223 227 226 229 224 220 216 216 230 223 212 213 217 249 262 249 268 283 287 304 308 309
222 224 225 225 224 223 223 223 224 224 224 222 224 223 224 226 227 228 231 229 226 211 207 220 229 206 210 213 236 272 239 259 274 290 306 309 306 307
Wind_Speed_850mb
6 8 11 10 12 17 27 40 37 27 28 28 38 26 40 62 89 84 89 92 94 88 62 47 44 43 38 30 28 21 21 17 13 11 7 5 10 15
4 3 4 3 6 10 32 36 30 46 40 48 59 67 84 92 93 100 98 93 82 57 47 47 40 30 28 24 23 21 17 15 11 7 6 11 17 22
13 7 8 6 21 18 23 21 33 32 61 65 74 79 95 105 96 92 82 76 59 54 50 45 40 35 30 29 22 18 13 10 7 8 12 17 23 27
9 11 10 12 14 10 20 21 22 28 61 85 81 91 84 85 82 72 70 65 58 55 48 43 38 37 31 25 19 15 11 7 10 14 16 15 15 18
15 10 11 16 13 25 25 29 34 68 91 96 72 79 80 72 73 68 62 55 51 52 42 41 38 33 25 19 14 10 8 11 7 6 10 14 15 18
14 17 20 22 22 31 37 38 70 84 84 86 78 67 67 62 62 66 58 52 52 44 41 36 31 25 20 16 13 11 7 3 4 8 10 13 17 20
27 21 27 31 35 36 44 68 84 85 85 85 73 72 71 69 66 56 58 53 42 37 38 33 27 23 20 19 16 12 5 2 5 8 12 14 15 16
29 33 36 38 36 33 48 69 85 89 83 83 78 74 65 64 59 60 58 53 41 28 34 31 26 30 28 23 17 8 1 2 7 10 10 11 12 13
33 39 37 34 32 33 47 60 67 69 65 77 70 70 70 66 59 60 55 42 42 43 39 39 28 25 25 20 11 5 1 5 7 7 8 8 12 15
36 35 36 35 34 44 48 52 60 49 54 67 68 77 62 41 34 43 46 37 35 39 31 28 20 23 22 15 9 6 2 4 4 5 5 7 13 20
32 31 35 35 42 38 44 49 51 51 53 50 60 51 43 40 50 43 38 37 39 31 28 22 24 19 20 19 13 8 6 5 4 5 5 13 18 22
36 32 26 38 37 46 43 49 44 47 61 70 56 45 42 46 44 34 34 32 31 28 30 23 31 24 12 16 14 13 10 10 10 7 9 12 16 16
37 40 49 45 47 47 44 40 55 55 54 58 51 48 43 41 38 35 34 27 30 21 30 32 34 30 10 18 13 15 14 12 12 9 13 15 19 19
40 45 54 53 45 36 34 39 51 55 50 50 46 40 38 40 35 34 36 31 38 33 24 34 22 24 21 16 18 19 18 17 11 11 12 25 28 28
50 45 40 36 36 35 40 45 52 40 40 42 40 39 35 34 42 44 40 37 37 37 24 40 22 24 22 19 19 18 19 17 11 11 12 12 15 15
42 40 38 39 35 39 45 48 34 35 36 37 39 37 37 45 42 35 37 39 36 37 36 35 38 30 18 18 21 21 19 11 18 13 17 11 12 15
43 43 41 35 30 39 44 32 30 34 33 34 35 37 33 31 28 29 26 28 25 30 31 31 32 38 35 28 18 16 14 12 13 18 19 10 9 26
33 32 29 29 31 32 32 31 28 34 29 30 31 30 30 32 32 31 30 30 26 24 26 34 38 38 31 25 25 16 15 12 12 17 25 21 16 11
32 29 30 32 33 35 37 36 34 32 32 31 31 31 32 33 37 31 32 31 30 28 30 37 38 37 36 31 34 29 24 15 21 22 27 23 24 16
34 32 33 34 36 38 38 40 40 40 39 38 36 35 35 33 33 35 36 38 37 40 39 39 36 37 33 35 32 31 21 36 27 30 28 25 25 25
43 38 37 38 40 41 43 44 46 48 47 44 41 39 39 38 41 42 42 45 45 44 42 39 38 52 49 48 36 20 28 34 32 29 29 23 22 18
46 47 44 43 46 47 50 51 51 54 55 54 50 46 48 52 54 54 47 49 55 46 39 42 56 47 52 49 36 25 30 34 30 29 25 21 22 17
50 49 49 50 49 50 50 53 54 57 60 56 56 57 61 62 58 51 53 48 49 48 48 58 43 45 48 44 36 27 33 35 28 28 23 20 22 26
Wind_Direction_850mb
271 219 218 235 266 204 186 174 163 144 130 150 155 193 187 183 175 173 159 149 151 157 156 157 153 157 158 151 151 155 177 170 171 189 215 282 304 305
226 280 230 300 137 173 167 166 164 149 119 147 141 145 161 156 162 150 147 150 156 153 150 155 153 166 167 151 156 166 176 181 194 215 264 294 303 304
254 281 274 178 140 116 156 159 160 156 137 138 135 134 128 129 133 137 142 148 146 151 159 160 162 158 155 167 174 177 184 194 228 274 292 301 301 300
215 237 227 166 154 161 162 154 172 170 151 139 134 134 130 132 141 139 139 143 146 153 157 155 161 159 169 171 174 189 202 239 274 289 301 303 312 321
196 187 182 156 144 149 156 152 153 138 145 141 139 145 147 144 136 139 137 142 145 146 149 157 165 172 170 176 184 208 236 263 279 300 314 321 323 322
138 123 125 155 145 147 148 154 149 147 145 147 149 141 141 144 135 134 136 139 138 145 154 159 163 167 177 185 203 218 197 189 320 337 325 330 335 333
123 112 120 124 132 129 138 148 151 143 144 149 146 147 140 135 138 140 135 138 144 152 154 158 166 172 182 188 182 166 165 352 348 334 339 342 341 353
119 117 119 132 128 132 149 149 155 154 152 157 156 145 143 144 141 138 141 145 137 156 154 146 167 166 184 173 168 169 147 335 346 348 348 353 0 2
131 121 119 128 133 136 145 162 161 158 153 161 160 163 151 146 148 148 146 144 151 151 163 153 180 186 173 177 181 202 232 346 343 352 353 356 356 348
137 127 130 126 127 142 148 156 165 165 172 161 158 154 150 151 155 144 140 161 170 167 170 147 182 178 183 187 204 211 276 311 307 323 331 351 352 351
129 140 132 136 129 145 150 149 157 165 165 163 158 152 163 150 144 160 162 169 153 166 154 173 185 198 192 209 215 217 241 238 282 282 332 356 353 343
123 120 144 147 139 136 142 139 138 156 157 155 154 162 153 158 164 168 167 156 157 171 189 177 183 173 186 260 225 232 241 236 252 283 341 336 332 333
121 120 122 123 132 127 129 136 140 138 145 162 165 166 167 173 175 174 168 183 186 196 214 187 197 194 205 189 234 249 239 246 260 305 308 306 325 330
132 134 131 129 135 140 135 141 141 141 147 154 160 167 175 172 168 188 195 190 197 206 231 188 199 199 202 207 206 222 223 228 215 248 298 317 329 327
146 144 144 142 146 148 149 146 130 144 152 156 165 170 171 169 194 201 200 205 208 212 220 196 185 212 211 221 205 216 210 222 239 241 278 285 286 302
146 147 145 141 138 147 148 147 141 159 162 166 170 172 180 201 205 204 209 213 221 223 228 218 209 204 199 210 207 213 206 230 242 266 294 302 284 286
160 158 156 149 152 157 158 158 167 173 174 174 175 180 186 188 187 197 197 202 213 223 222 217 212 210 207 202 192 204 206 219 242 253 293 278 269 280
163 167 172 174 175 177 180 181 182 182 183 187 191 189 188 188 193 196 197 201 197 200 207 217 217 215 210 209 196 198 225 225 256 289 296 292 296 271
177 186 191 194 194 196 198 200 199 201 196 201 204 200 200 202 207 204 205 206 209 211 208 221 211 207 202 194 216 225 221 232 257 274 280 296 302 302
200 204 206 206 207 208 209 210 212 213 214 211 212 213 210 211 214 215 216 216 217 216 212 214 210 209 219 217 211 217 230 274 275 282 287 300 316 321
208 209 214 214 213 213 214 215 217 218 221 220 220 219 219 217 222 225 223 224 222 218 215 213 213 215 215 219 219 232 265 258 270 282 294 309 321 316
217 218 216 218 219 219 219 219 220 220 221 222 221 221 222 223 223 227 226 229 224 220 216 216 230 223 212 213 217 249 262 249 268 283 287 304 308 309
222 224 225 225 224 223 223 223 224 224 224 222 224 223 224 226 227 228 231 229 226 211 207 220 229 206 210 213 236 272 239 259 274 290 306 309 306 307